Skip Page Navigation
NASA JPL Caltech
NASA Logo - Jet Propulsion Laboratory + View the NASA Portal
+ Center for Near-Earth Object Studies
JPL Home Earth Solar System Stars & Galaxies Technology
JPL Solar System Dynamics
BODIES ORBITS EPHEMERIDES TOOLS PHYSICAL DATA DISCOVERY FAQ SITE MAP
JPL Small-Body Database Browser
Search: [ help ]  
385860 (2006 QG151)
Classification: Main-belt Asteroid          SPK-ID: 2385860
Ephemeris | Orbit Diagram | Orbital Elements | Mission Design | Physical Parameters | Discovery Circumstances | Close-Approach Data ]

[ show orbit diagram ]
Orbital Elements at Epoch 2459396.5 (2021-Jul-01.0) TDB
Reference: JPL 15 (heliocentric ecliptic J2000)
 Element Value Uncertainty (1-sigma)   Units 
e .07256041699954624 4.6656e-08  
a 2.958733088346273 3.3458e-08 au
q 2.744046181665512 1.5164e-07 au
i 1.864758739066125 5.6459e-06 deg
node 168.7505486819647 0.00016622 deg
peri 139.062532376309 0.00017202 deg
M 354.5709931451724 4.5179e-05 deg
tp 2459424.533349981299
(2021-Jul-29.03334998)
0.00023346 TDB
period 1858.904632675787
5.09
3.1531e-05
8.633e-08
d
yr
n .1936624362928186 3.2849e-09 deg/d
Q 3.173419995027034 3.5885e-08 au
  Orbit Determination Parameters
   # obs. used (total)      152  
   data-arc span      6800 days (18.62 yr)  
   first obs. used      2001-09-19  
   last obs. used      2020-05-02  
   planetary ephem.      DE441  
   SB-pert. ephem.      SB441-N16  
   condition code      0  
   norm. resid. RMS      .63055  
   source      ORB  
   producer      Otto Matic  
   solution date      2021-Apr-14 11:06:54  

Additional Information
 Earth MOID = 1.72905 au 
 Jupiter MOID = 1.99785 au 
 T_jup = 3.262 
[ show covariance matrix ]

Ephemeris | Orbit Diagram | Orbital Elements | Mission Design | Physical Parameters | Discovery Circumstances | Close-Approach Data ]

Physical Parameter Table
Parameter Symbol Value Units Sigma Reference Notes
absolute magnitude H 17.06   n/a E2021B25  

385860 (2006 QG151)          Discovered 2006-Aug-19 by Spacewatch at Kitt Peak
Reference: Last Updated: 2014-02-19

[ hide close-approach data ]
Close-Approach Data   ...sorted by Date/Time (TDB)
Date/Time (TDB) Time Uncertainty
(days_HH:MM)
Body Nominal Distance (au) Minimum Distance (au) Maximum Distance (au) V-relative (km/s) V-infinity (km/s) JD (TDB) Time Uncertainty (minutes) Semi-major axis (km) Semi-minor axis (km) range-LOV angle (deg) N-sigma BP Orbit Ref. Reference Modified
1906-Apr-28 11:00 00:06 Jupiter 1.99419916874602 1.99419866674155 1.99419967075105 3.23717023574117 3.10318944966024 2417328.958511574 5.65829825103961 112.214100921619 15.9358032735931 79.5282773427149 2977124.22470298 T 15 CATAB v2.0f-lin.ifort 2021-Apr-14 11:06:54 2021-Apr-14 11:06
1941-Dec-10 13:04 00:04 Jupiter 1.99078521294715 1.99078475665302 1.99078566924129 3.22203876869324 3.08716547757209 2430339.044745355 3.82600638485739 80.3116072241103 15.688594427707 80.560444532755 2947334.64484941 T 15 CATAB v2.0f-lin.ifort 2021-Apr-14 11:06:54 2021-Apr-14 11:06
1977-Jul-26 03:52 00:02 Jupiter 1.99725778538645 1.99725735867199 1.9972582121008 3.23207197181428 3.09808065849968 2443350.661099778 2.00317714929154 56.2316421100314 14.931799868639 84.289364702303 2944129.49913085 T 15 CATAB v2.0f-lin.ifort 2021-Apr-14 11:06:54 2021-Apr-14 11:06
2013-Mar-10 18:11 < 00:01 Jupiter 1.9978166446713 1.99781621633137 1.99781707301112 3.22694364934963 3.09276852008691 2456362.257835309 0.304528529041862 46.7321805754539 14.3168143149107 87.350203177499 3025041.55997453 T 15 CATAB v2.0f-lin.ifort 2021-Apr-14 11:06:54 2021-Apr-14 11:06
2048-Oct-23 11:48 00:02 Jupiter 1.99803711512385 1.99803665221238 1.99803757803532 3.22115492195072 3.08674333231007 2469372.991593214 1.67583247752251 52.7825102633712 15.756402653716 83.0214207570301 3135009.66884003 T 15 CATAB v2.0f-lin.ifort 2021-Apr-14 11:06:54 2021-Apr-14 11:06
Ephemeris | Orbit Diagram | Orbital Elements | Mission Design | Physical Parameters | Discovery Circumstances | Close-Approach Data ]
ABOUT SSD CREDITS/AWARDS PRIVACY/COPYRIGHT GLOSSARY LINKS
FirstGov 2021-Jul-23 15:27 UT
(server date/time)  
NASA Home Page
Site Manager:   Ryan S. Park
Webmaster  Alan B. Chamberlin